Location: Kumla
(59.1265°N, 15.1401°E)
Time: 03:15:11
(UTC+01:00)

Altair - Pass Details

Date: 12 December 2023
Orbit: 1501 x 1682 km, 47.2° (Epoch: 23 February)

Event Time Altitude Azimuth Distance (km) Brightness Sun altitude
Rises 07:14:54 0° 226° (SW) 4,854 9.9 -9.8°
Reaches altitude 10° 07:18:26 10° 218° (SW) 3,844 9.5 -9.4°
Maximum altitude 07:26:47 34° 159° (SSE) 2,390 9.1 -8.5°
Drops below altitude 10° 07:34:53 10° 99° (E) 3,726 10.8 -7.6°
Sets 07:38:14 0° 91° (E) 4,688 11.1 -7.3°
